Regional Weather Roundup
Issued by NWS Midland/Odessa, TX

Skip options and go directly to product.
Home | Oldest Version | Previous Version | Current Version | All | Text Only | Save Text | Print | Product List | Glossary Off

Skip product version selection by date and time.   

612
ASUS44 KMAF 260610
RWRMAF
MIDLAND AREA WEATHER ROUNDUP
NATIONAL WEATHER SERVICE MIDLAND TX
100 AM CDT THU MAY 26 2016

...IN SOUTHWEST TEXAS AND SOUTHEAST NEW MEXICO...

CITY           SKY/WX    TMP DP  RH WIND       PRES   REMARKS
ALPINE         CLOUDY    78  42  27 SW18G28   30.09F
ANDREWS        FAIR      74  67  80 SW6       29.97F
ARTESIA        CLEAR     72  28  20 S10       29.92R
BIG SPRING     PTCLDY    75  70  84 SE15      29.95F
CARLSBAD       PTCLDY    75  41  29 W3        29.91R
DRYDEN           N/A     80  72  76 S16       29.91F
FORT STOCKTON  PTCLDY    76  69  79 S21G29    29.91F
GUAD PASS      NOT AVBL
HOBBS          PTCLDY    77  39  25 S13       29.94S
MARFA          CLOUDY    74  43  32 S12       30.08F
MIDLAND AIRPK  CLEAR     78  67  69 S7        29.94R
MIDLAND INTL   CLEAR     77  67  71 S13       29.93F
ODESSA         CLOUDY    77  65  66 S7        29.94F
PECOS          PTCLDY    90  33  13 SE12G18   29.85F
PRESIDIO       FAIR      83  46  26 SE7       29.96S
SEMINOLE       CLOUDY    78  56  46 SW8G24    29.96F
SNYDER           N/A     76  71  82 S12       29.94F
WINK           CLEAR     76  66  71 MISG      29.90S
$$
...OTHER STATIONS IN TEXAS...

CITY           SKY/WX    TMP DP  RH WIND       PRES   REMARKS
ABILENE        MOCLDY    76  73  91 SE13      29.91F FOG
AMARILLO       CLEAR     66  30  26 SW8       29.90F
AUSTIN         CLOUDY    78  75  90 S8        29.96F
BROWNSVILLE    LGT RAIN  82  80  94 S8        30.02R
CORPUS CHRISTI CLOUDY    82  78  88 SE17G26   29.94F
DALLAS FTW     MOCLDY    80  73  79 S14       29.92F
DEL RIO        CLOUDY    81  76  84 S14       29.94R HAZE
EL PASO        PTCLDY    80  11   7 W22G32    29.97S
HOUSTON INT    MOCLDY    79  75  87 S9        30.00F
LUBBOCK        PTCLDY    76  57  51 S13       29.93F
SAN ANGELO     CLOUDY    80  72  76 S13G24    29.91F
SAN ANTONIO    CLOUDY    79  74  84 SE12      29.96F
WACO           CLOUDY    78  72  81 SE16      29.94F
WICHITA FALLS  NOT AVBL
$$
...OTHER LOCATIONS IN NEW MEXICO...

CITY           SKY/WX    TMP DP  RH WIND       PRES   REMARKS
ALAMAGORDO     CLEAR     64  14  14 S9        29.99S
ALBUQUERQUE    PTCLDY    61  14  16 SE7       29.99R
CANNON AFB     CLEAR     58  30  33 CALM      29.94F
CLOVIS         CLEAR     61  32  33 CALM      29.94F
HOLLOMAN AFB   CLEAR     66  15  13 S8        29.96S
ROSWELL        CLEAR     68  26  20 SW10      29.89F
RUIDOSO          N/A     57  14  18 S6        30.14F
SANTA FE       CLEAR     55  20  25 N9        30.03F
TRUTH OR CONSE CLEAR     71  13  10 SW13      29.98F
TUCUMCARI      CLEAR     62  25  24 VRB6      29.89F
$$

USA.gov is the U.S. government's official web portal to all federal, state and local government web resources and services.